Estación de San Rafael
Ultimos registro cada 15 minutos 93
| N° | Estación | Fecha / Hora | Temperatura | Humedad | Lluvia | Velocidad | Dirección | Radiación | Presion |
| 93 | San Rafael | 09-05-2026 23:00 | 6,3 | 87,7 | 0 | 0 | 170 | 0,6 | 998,7 |
| 92 | San Rafael | 09-05-2026 22:45 | 7,3 | 84,8 | 0 | 0 | 170 | 0,6 | 998,6 |
| 91 | San Rafael | 09-05-2026 22:30 | 8,3 | 82,6 | 0 | 0 | 168 | 0,6 | 998,6 |
| 90 | San Rafael | 09-05-2026 22:15 | 9,3 | 79,8 | 0 | 0 | 170 | 0,6 | 998,5 |
| 89 | San Rafael | 09-05-2026 22:00 | 9,7 | 79,1 | 0 | 0 | 170 | 0,6 | 998,6 |
| 88 | San Rafael | 09-05-2026 21:45 | 9,5 | 78,9 | 0 | 0 | 170 | 0,6 | 998,4 |
| 87 | San Rafael | 09-05-2026 21:30 | 9,2 | 78,8 | 0 | 0 | 171 | 0,6 | 998,6 |
| 86 | San Rafael | 09-05-2026 21:15 | 9,7 | 76,7 | 0 | 0 | 171 | 0,6 | 998,4 |
| 85 | San Rafael | 09-05-2026 21:00 | 10,3 | 75,7 | 0 | 0 | 171 | 0,6 | 998,3 |
| 84 | San Rafael | 09-05-2026 20:45 | 10,6 | 75,5 | 0 | 0 | 171 | 0,6 | 998,3 |
| 83 | San Rafael | 09-05-2026 20:30 | 9,3 | 80,6 | 0 | 0 | 171 | 0,6 | 998,4 |
| 82 | San Rafael | 09-05-2026 20:15 | 8,9 | 80,2 | 0 | 0 | 171 | 0,6 | 998,4 |
| 81 | San Rafael | 09-05-2026 20:00 | 8,6 | 81,8 | 0 | 0 | 171 | 0,6 | 998,3 |
| 80 | San Rafael | 09-05-2026 19:45 | 9,8 | 78,3 | 0 | 0 | 171 | 0,6 | 998,3 |
| 79 | San Rafael | 09-05-2026 19:30 | 8,7 | 83,7 | 0 | 0 | 171 | 0,6 | 998,2 |
| 78 | San Rafael | 09-05-2026 19:15 | 9,6 | 77,8 | 0 | 0 | 171 | 0,6 | 998 |
| 77 | San Rafael | 09-05-2026 19:00 | 11 | 75,4 | 0 | 0 | 171 | 0,6 | 997,9 |
| 76 | San Rafael | 09-05-2026 18:45 | 10,3 | 78,1 | 0 | 0 | 171 | 0,6 | 997,8 |
| 75 | San Rafael | 09-05-2026 18:30 | 9,4 | 80,1 | 0 | 0 | 171 | 0,6 | 997,8 |
| 74 | San Rafael | 09-05-2026 18:15 | 11 | 73,8 | 0 | 0 | 171 | 0,6 | 997,9 |
| 73 | San Rafael | 09-05-2026 18:00 | 12,9 | 65,9 | 0 | 0 | 171 | 1,9 | 997,7 |
| 72 | San Rafael | 09-05-2026 17:45 | 14,7 | 59,8 | 0 | 0 | 170 | 8,1 | 997,5 |
| 71 | San Rafael | 09-05-2026 17:30 | 15,8 | 56,8 | 0 | 0,5 | 170 | 29,4 | 997,6 |
| 70 | San Rafael | 09-05-2026 17:15 | 17,1 | 53,3 | 0 | 0,5 | 173 | 100,6 | 997,5 |
| 69 | San Rafael | 09-05-2026 17:00 | 17,7 | 51,7 | 0 | 1 | 164 | 134,4 | 997,5 |
| 68 | San Rafael | 09-05-2026 16:45 | 18,2 | 51 | 0 | 1 | 160 | 216,9 | 997,3 |
| 67 | San Rafael | 09-05-2026 16:30 | 18,5 | 50,6 | 0 | 1,5 | 171 | 270,6 | 997,5 |
| 66 | San Rafael | 09-05-2026 16:15 | 18,1 | 50,8 | 0 | 1,5 | 178 | 323,1 | 997,5 |
| 65 | San Rafael | 09-05-2026 16:00 | 18,2 | 50,4 | 0 | 2 | 178 | 375,6 | 997,6 |
| 64 | San Rafael | 09-05-2026 15:45 | 18,7 | 49,6 | 0 | 2 | 175 | 426,9 | 997,7 |
| 63 | San Rafael | 09-05-2026 15:30 | 18,3 | 50,1 | 0 | 2 | 170 | 463,1 | 997,6 |
| 62 | San Rafael | 09-05-2026 15:15 | 18,4 | 50,9 | 0 | 2 | 161 | 294,4 | 997,8 |
| 61 | San Rafael | 09-05-2026 15:00 | 18,3 | 50,6 | 0 | 1,5 | 171 | 236,9 | 997,5 |
| 60 | San Rafael | 09-05-2026 14:45 | 18,4 | 50,9 | 0 | 1,5 | 188 | 605,6 | 997,5 |
| 59 | San Rafael | 09-05-2026 14:30 | 18,4 | 51,5 | 0 | 2 | 168 | 640,6 | 997,6 |
| 58 | San Rafael | 09-05-2026 14:15 | 18,2 | 50,6 | 0 | 2 | 177 | 673,1 | 997,5 |
| 57 | San Rafael | 09-05-2026 14:00 | 17,9 | 52,1 | 0 | 1,5 | 173 | 701,9 | 997,7 |
| 56 | San Rafael | 09-05-2026 13:45 | 17,5 | 51,9 | 0 | 2 | 164 | 628,1 | 997,9 |
| 55 | San Rafael | 09-05-2026 13:30 | 17,3 | 55,4 | 0 | 1,5 | 173 | 740,6 | 998 |
| 54 | San Rafael | 09-05-2026 13:15 | 16,8 | 55,7 | 0 | 1,5 | 170 | 638,1 | 998,3 |
| 53 | San Rafael | 09-05-2026 13:00 | 16,4 | 56,9 | 0 | 1,5 | 173 | 766,9 | 998,2 |
| 52 | San Rafael | 09-05-2026 12:45 | 15,5 | 59,1 | 0 | 2 | 174 | 773,1 | 998,4 |
| 51 | San Rafael | 09-05-2026 12:30 | 14,8 | 58,3 | 0 | 2,5 | 183 | 773,1 | 998,7 |
| 50 | San Rafael | 09-05-2026 12:15 | 14,1 | 62,4 | 0 | 2,5 | 175 | 770,6 | 998,8 |
| 49 | San Rafael | 09-05-2026 12:00 | 13,6 | 65,2 | 0 | 2 | 185 | 525,6 | 999,4 |
| 48 | San Rafael | 09-05-2026 11:45 | 13 | 67,2 | 0 | 1,5 | 178 | 741,9 | 999,6 |
| 47 | San Rafael | 09-05-2026 11:30 | 12,7 | 69,6 | 0 | 1,5 | 175 | 695,6 | 999,6 |
| 46 | San Rafael | 09-05-2026 11:15 | 12 | 73,1 | 0 | 1 | 171 | 701,9 | 999,8 |
| 45 | San Rafael | 09-05-2026 11:00 | 11,2 | 73,6 | 0 | 1 | 171 | 675,6 | 999,7 |
| 44 | San Rafael | 09-05-2026 10:45 | 10,9 | 73,9 | 0 | 1 | 195 | 638,1 | 999,9 |
| 43 | San Rafael | 09-05-2026 10:30 | 10,5 | 76,8 | 0 | 1 | 168 | 610,6 | 999,7 |
| 42 | San Rafael | 09-05-2026 10:15 | 9,8 | 79,6 | 0 | 1 | 183 | 560,6 | 999,9 |
| 41 | San Rafael | 09-05-2026 10:00 | 9,4 | 82,7 | 0 | 1 | 159 | 280,6 | 999,9 |
| 40 | San Rafael | 09-05-2026 09:45 | 8,5 | 84,7 | 0 | 1,5 | 170 | 465,6 | 1000 |
| 39 | San Rafael | 09-05-2026 09:30 | 7,9 | 87 | 0 | 1 | 170 | 430,6 | 1000,1 |
| 38 | San Rafael | 09-05-2026 09:15 | 7,3 | 90,5 | 0 | 1,5 | 166 | 358,1 | 1000 |
| 37 | San Rafael | 09-05-2026 09:00 | 7,2 | 93,8 | 0 | 0,5 | 163 | 173,1 | 1000,3 |
| 36 | San Rafael | 09-05-2026 08:45 | 6,8 | 95,7 | 0 | 0 | 145 | 263,1 | 1000,7 |
| 35 | San Rafael | 09-05-2026 08:30 | 6,4 | 96,9 | 0 | 0 | 150 | 85,6 | 1000,6 |
| 34 | San Rafael | 09-05-2026 08:15 | 7 | 97,3 | 0 | 0 | 150 | 128,1 | 1000,4 |
| 33 | San Rafael | 09-05-2026 08:00 | 4,1 | 98,5 | 0 | 0 | 150 | 78,1 | 1000,2 |
| 32 | San Rafael | 09-05-2026 07:45 | 2,8 | 98,1 | 0 | 0 | 150 | 11,9 | 1000,6 |
| 31 | San Rafael | 09-05-2026 07:30 | 3 | 97,5 | 0 | 0 | 150 | 4,4 | 1000,4 |
| 30 | San Rafael | 09-05-2026 07:15 | 4,2 | 97,7 | 0 | 0 | 164 | 0,6 | 1000,5 |
| 29 | San Rafael | 09-05-2026 07:00 | 4,1 | 97,2 | 0 | 0 | 164 | 0,6 | 1000,4 |
| 28 | San Rafael | 09-05-2026 06:45 | 5 | 97,3 | 0 | 0 | 178 | 0,6 | 1000,7 |
| 27 | San Rafael | 09-05-2026 06:30 | 5,1 | 96,9 | 0 | 0 | 171 | 0,6 | 1000,6 |
| 26 | San Rafael | 09-05-2026 06:15 | 5,5 | 96,6 | 0 | 0 | 187 | 0,6 | 1000,7 |
| 25 | San Rafael | 09-05-2026 06:00 | 5,8 | 96,1 | 0 | 0 | 181 | 0,6 | 1000,7 |
| 24 | San Rafael | 09-05-2026 05:45 | 6,3 | 95,7 | 0 | 0 | 185 | 0,6 | 1001 |
| 23 | San Rafael | 09-05-2026 05:30 | 6,9 | 95,5 | 0 | 1 | 177 | 0,6 | 1000,8 |
| 22 | San Rafael | 09-05-2026 05:15 | 7 | 95,3 | 0 | 0,5 | 178 | 0,6 | 1000,7 |
| 21 | San Rafael | 09-05-2026 05:00 | 7,3 | 95,3 | 0 | 0,5 | 175 | 0,6 | 1000,9 |
| 20 | San Rafael | 09-05-2026 04:45 | 7,4 | 95,1 | 0 | 0,5 | 175 | 0,6 | 1000,7 |
| 19 | San Rafael | 09-05-2026 04:30 | 7,5 | 95,2 | 0 | 1 | 166 | 0,6 | 1000,9 |
| 18 | San Rafael | 09-05-2026 04:15 | 7,6 | 95 | 0 | 1 | 170 | 0,6 | 1000,9 |
| 17 | San Rafael | 09-05-2026 04:00 | 7,8 | 95,2 | 0 | 1 | 183 | 0,6 | 1000,9 |
| 16 | San Rafael | 09-05-2026 03:45 | 8 | 95,3 | 0 | 0,5 | 190 | 0,6 | 1001 |
| 15 | San Rafael | 09-05-2026 03:30 | 8,3 | 95,5 | 0 | 1 | 183 | 0,6 | 1001 |
| 14 | San Rafael | 09-05-2026 03:15 | 8,5 | 95,5 | 0 | 1 | 183 | 0,6 | 1001,1 |
| 13 | San Rafael | 09-05-2026 03:00 | 8,7 | 95,5 | 0 | 1,5 | 183 | 0,6 | 1001,2 |
| 12 | San Rafael | 09-05-2026 02:45 | 8,9 | 95,3 | 0 | 1 | 177 | 0,6 | 1001,2 |
| 11 | San Rafael | 09-05-2026 02:30 | 9,1 | 95,4 | 0 | 0,5 | 177 | 0,6 | 1001,4 |
| 10 | San Rafael | 09-05-2026 02:15 | 9,2 | 95,3 | 0 | 1 | 167 | 0,6 | 1001,5 |
| 9 | San Rafael | 09-05-2026 02:00 | 9,3 | 95,6 | 0 | 1,5 | 171 | 0,6 | 1001,7 |
| 8 | San Rafael | 09-05-2026 01:45 | 9,2 | 96 | 0 | 1 | 173 | 0,6 | 1001,7 |
| 7 | San Rafael | 09-05-2026 01:30 | 9,2 | 96 | 0 | 1 | 171 | 0,6 | 1001,8 |
| 6 | San Rafael | 09-05-2026 01:15 | 9,3 | 96 | 0 | 0,5 | 175 | 0,6 | 1001,7 |
| 5 | San Rafael | 09-05-2026 01:00 | 9,3 | 95,7 | 0 | 1,5 | 177 | 0,6 | 1001,8 |
| 4 | San Rafael | 09-05-2026 00:45 | 9,4 | 95,4 | 0 | 1 | 178 | 0,6 | 1001,6 |
| 3 | San Rafael | 09-05-2026 00:30 | 9,7 | 95,1 | 0 | 1,5 | 177 | 0,6 | 1001,6 |
| 2 | San Rafael | 09-05-2026 00:15 | 9,8 | 94,6 | 0 | 1 | 180 | 0,6 | 1001,5 |
| 1 | San Rafael | 09-05-2026 00:00 | 10 | 94,5 | 0 | 1 | 178 | 0,6 | 1001,4 |